Flood From: 24-02-2018 06:00 Until: 25-02-2018 06:00 warning for: Flood Level: Yellow info button

Although rather usual in this region, locally or potentially dangerous phenomena are expected. (such as local winds, summer thunderstorms, rising streams or high waves) Be aware and pay attention to the latest weather updates, especially if you carry out activities exposed to weather or close to a stream or shoreline. 


Meteo18 Weather Cam more information Meteo18 Weather Cam


Thunder radar more information blitzortung!


Rain radar more information rain snow radar


Visit our other weather sites:

Template documentation
and downloads

And another site



Weather Underground History page Text

Daily Summary for April 20, 2016 Units:  Metric    English   Both
« Previous Day
Next Day »
Daily Weekly Monthly Yearly Custom
  High: Low: Average:
Temperature: -17.8 °C -14.6 °C -10.4 °C
Dew Point: -17.8 °C -16 °C -13.9 °C
Humidity: Humidity % 43 % 67 %
Wind Speed: 0 km/h 0 km/h 3.1 km/h
Wind Gust: 0 km/h - -
Wind:- - ENE
Pressure: 0 hPa 34462.7 hPa -
Precipitation: 0 mm    
Historical Graphs
 
 
Tabular Data for April 20, 2016
Time Temperature Dew Point Pressure Wind Wind Speed Wind Gust Humidity Rainfall Rate (Hourly)
-17.8 °C -17.8 °C 0 hPa Calm     Humidity % 0 mm
00:02 -12.8 °C -14.8 °C 34645.6 hPa NNE 10.3 km/h 15.6 km/h 78 % 0 mm
00:07 -12.8 °C -14.8 °C 34645.6 hPa NNE 7.7 km/h 15.6 km/h 78 % 0 mm
00:12 -12.8 °C -14.8 °C 34645.6 hPa Calm   15.6 km/h 78 % 0 mm
00:22 -12.9 °C -14.9 °C 34645.6 hPa Calm   15.6 km/h 78 % 0 mm
00:27 -13 °C -15 °C 34645.6 hPa NE 5.1 km/h 15.6 km/h 78 % 0 mm
00:32 -13 °C -14.9 °C 34645.6 hPa NNE 2.6 km/h 15.6 km/h 79 % 0 mm
00:37 -13.1 °C -14.9 °C 34635.4 hPa Calm   15.6 km/h 79 % 0 mm
00:42 -13.1 °C -15 °C 34635.4 hPa Calm   15.6 km/h 79 % 0 mm
00:47 -13.1 °C -15 °C 34635.4 hPa NNE 2.6 km/h 12.9 km/h 79 % 0 mm
00:52 -13.1 °C -15 °C 34635.4 hPa NE 2.6 km/h 12.9 km/h 79 % 0 mm
00:57 -13.1 °C -15 °C 34635.4 hPa NE 5.1 km/h 12.9 km/h 79 % 0 mm
01:02 -13.1 °C -15 °C 34635.4 hPa NNE 2.6 km/h 18.2 km/h 79 % 0 mm
01:07 -13.1 °C -15 °C 34645.6 hPa NNE 2.6 km/h 18.2 km/h 79 % 0 mm
01:12 -13.1 °C -15 °C 34635.4 hPa NNE 10.3 km/h 15.6 km/h 79 % 0 mm
01:17 -13.1 °C -15.1 °C 34635.4 hPa Calm   15.6 km/h 78 % 0 mm
01:22 -13.1 °C -15 °C 34635.4 hPa Calm   15.6 km/h 79 % 0 mm
01:27 -13.2 °C -15.1 °C 34645.6 hPa Calm   15.6 km/h 79 % 0 mm
01:32 -13.2 °C -15.1 °C 34645.6 hPa Calm   10.3 km/h 79 % 0 mm
01:37 -13.2 °C -15.1 °C 34645.6 hPa NE 2.6 km/h 7.7 km/h 79 % 0 mm
01:42 -13.2 °C -15 °C 34645.6 hPa Calm   18.2 km/h 80 % 0 mm
01:47 -13.2 °C -15 °C 34645.6 hPa Calm   18.2 km/h 80 % 0 mm
01:52 -13.2 °C -15 °C 34645.6 hPa NE 2.6 km/h 18.2 km/h 80 % 0 mm
01:57 -13.3 °C -15.1 °C 34645.6 hPa NNE 2.6 km/h 10.3 km/h 80 % 0 mm
02:02 -13.3 °C -15.1 °C 34645.6 hPa NNE 7.7 km/h 12.9 km/h 80 % 0 mm
02:07 -13.2 °C -15 °C 34645.6 hPa NNE 2.6 km/h 12.9 km/h 80 % 0 mm
02:12 -13.3 °C -15.1 °C 34645.6 hPa NE 7.7 km/h 12.9 km/h 80 % 0 mm
02:17 -13.3 °C -15.1 °C 34645.6 hPa NNE 2.6 km/h 12.9 km/h 80 % 0 mm
02:22 -13.3 °C -15.1 °C 34635.4 hPa NE 5.1 km/h 12.9 km/h 81 % 0 mm
02:27 -13.3 °C -15.1 °C 34635.4 hPa NNE 2.6 km/h 10.3 km/h 80 % 0 mm
02:32 -13.3 °C -15.1 °C 34635.4 hPa NE 5.1 km/h 18.2 km/h 80 % 0 mm
02:37 -13.3 °C -15.1 °C 34635.4 hPa North 5.1 km/h 18.2 km/h 80 % 0 mm
02:42 -13.3 °C -15.1 °C 34645.6 hPa Calm   18.2 km/h 80 % 0 mm
02:47 -13.3 °C -15.1 °C 34635.4 hPa Calm   15.6 km/h 80 % 0 mm
02:52 -13.3 °C -15.1 °C 34635.4 hPa NE 5.1 km/h 15.6 km/h 80 % 0 mm
02:57 -13.2 °C -15.1 °C 34635.4 hPa Calm   18.2 km/h 79 % 0 mm
03:02 -13.3 °C -15.1 °C 34635.4 hPa NNE 5.1 km/h 18.2 km/h 80 % 0 mm
03:07 -13.3 °C -15.1 °C 34645.6 hPa NNE 7.7 km/h 18.2 km/h 80 % 0 mm
03:12 -13.3 °C -15.2 °C 34645.6 hPa NNE 5.1 km/h 12.9 km/h 79 % 0 mm
03:17 -13.3 °C -15.1 °C 34645.6 hPa NE 2.6 km/h 12.9 km/h 80 % 0 mm
03:27 -13.4 °C -15.2 °C 34635.4 hPa NE 5.1 km/h 12.9 km/h 80 % 0 mm
03:37 -13.4 °C -15.3 °C 34645.6 hPa East 2.6 km/h 18.2 km/h 79 % 0 mm
03:42 -13.4 °C -15.2 °C 34645.6 hPa Calm   18.2 km/h 80 % 0 mm
03:47 -13.5 °C -15.3 °C 34645.6 hPa Calm   18.2 km/h 80 % 0 mm
03:52 -13.6 °C -15.3 °C 34645.6 hPa Calm   15.6 km/h 80 % 0 mm
03:57 -13.6 °C -15.3 °C 34645.6 hPa NNE 5.1 km/h 15.6 km/h 80 % 0 mm
04:02 -13.6 °C -15.3 °C 34645.6 hPa Calm   15.6 km/h 81 % 0 mm
04:07 -13.7 °C -15.4 °C 34645.6 hPa NE 2.6 km/h 12.9 km/h 81 % 0 mm
04:12 -13.7 °C -15.3 °C 34645.6 hPa NNE 5.1 km/h 18.2 km/h 82 % 0 mm
04:17 -13.8 °C -15.4 °C 34645.6 hPa North 7.7 km/h 18.2 km/h 82 % 0 mm
04:22 -13.8 °C -15.4 °C 34645.6 hPa NNE 2.6 km/h 12.9 km/h 82 % 0 mm
04:27 -13.8 °C -15.4 °C 34645.6 hPa ESE 5.1 km/h 18.2 km/h 82 % 0 mm
04:32 -13.8 °C -15.4 °C 34635.4 hPa NNE 10.3 km/h 18.2 km/h 82 % 0 mm
04:37 -13.8 °C -15.4 °C 34635.4 hPa NNE 12.9 km/h 18.2 km/h 82 % 0 mm
04:42 -13.8 °C -15.4 °C 34635.4 hPa Calm   18.2 km/h 81 % 0 mm
04:52 -13.8 °C -15.6 °C 34625.2 hPa Calm   18.2 km/h 80 % 0 mm
04:57 -13.8 °C -15.6 °C 34625.2 hPa ENE 2.6 km/h 18.2 km/h 80 % 0 mm
05:02 -13.9 °C -15.6 °C 34625.2 hPa Calm   20.8 km/h 81 % 0 mm
05:07 -14 °C -15.6 °C 34625.2 hPa NE 7.7 km/h 20.8 km/h 82 % 0 mm
05:17 -14.2 °C -15.6 °C 34611.7 hPa ENE 2.6 km/h 15.6 km/h 84 % 0 mm
05:22 -14.2 °C -15.6 °C 34611.7 hPa South 2.6 km/h 18.2 km/h 84 % 0 mm
05:27 -14.2 °C -15.6 °C 34601.5 hPa Calm   18.2 km/h 84 % 0 mm
05:32 -14.2 °C -15.7 °C 34601.5 hPa NE 5.1 km/h 18.2 km/h 83 % 0 mm
05:37 -14.1 °C -15.6 °C 34601.5 hPa ESE 2.6 km/h 18.2 km/h 83 % 0 mm
05:42 -14.2 °C -15.7 °C 34601.5 hPa NE 2.6 km/h 18.2 km/h 83 % 0 mm
05:47 -14.2 °C -15.7 °C 34601.5 hPa Calm   12.9 km/h 83 % 0 mm
05:52 -14.3 °C -15.8 °C 34611.7 hPa Calm   12.9 km/h 83 % 0 mm
05:57 -14.3 °C -15.7 °C 34611.7 hPa NNE 5.1 km/h 12.9 km/h 84 % 0 mm
06:02 -14.4 °C -15.8 °C 34611.7 hPa ENE 5.1 km/h 15.6 km/h 84 % 0 mm
06:07 -14.5 °C -15.8 °C 34611.7 hPa ENE 10.3 km/h 15.6 km/h 85 % 0 mm
06:12 -14.5 °C -15.8 °C 34611.7 hPa Calm   15.6 km/h 85 % 0 mm
06:17 -14.6 °C -15.8 °C 34611.7 hPa Calm   15.6 km/h 85 % 0 mm
06:22 -14.6 °C -15.9 °C 34611.7 hPa ESE 2.6 km/h 15.6 km/h 85 % 0 mm
06:27 -14.5 °C -15.9 °C 34611.7 hPa NE 10.3 km/h 10.3 km/h 84 % 0 mm
06:32 -14.5 °C -15.9 °C 34611.7 hPa ENE 2.6 km/h 10.3 km/h 84 % 0 mm
06:37 -14.6 °C -15.9 °C 34611.7 hPa NE 7.7 km/h 23.3 km/h 84 % 0 mm
06:42 -14.5 °C -15.9 °C 34611.7 hPa Calm   23.3 km/h 84 % 0 mm
06:47 -14.5 °C -16 °C 34611.7 hPa NE 2.6 km/h 12.9 km/h 83 % 0 mm
06:52 -14.4 °C -15.9 °C 34611.7 hPa Calm   12.9 km/h 83 % 0 mm
07:02 -14.4 °C -15.9 °C 34611.7 hPa Calm   15.6 km/h 82 % 0 mm
07:07 -14.4 °C -15.9 °C 34611.7 hPa NNE 5.1 km/h 18.2 km/h 82 % 0 mm
07:17 -14.4 °C -16 °C 34611.7 hPa Calm   18.2 km/h 82 % 0 mm
07:22 -14.4 °C -15.9 °C 34625.2 hPa Calm   12.9 km/h 82 % 0 mm
07:27 -14.4 °C -16 °C 34625.2 hPa Calm   12.9 km/h 82 % 0 mm
07:32 -14.4 °C -16 °C 34625.2 hPa Calm   10.3 km/h 82 % 0 mm
07:37 -14.4 °C -16 °C 34625.2 hPa NE 5.1 km/h 10.3 km/h 82 % 0 mm
07:42 -14.4 °C -15.9 °C 34625.2 hPa Calm   10.3 km/h 82 % 0 mm
07:47 -14.3 °C -15.9 °C 34625.2 hPa NE 5.1 km/h 12.9 km/h 82 % 0 mm
07:52 -14.3 °C -15.9 °C 34625.2 hPa NE 5.1 km/h 12.9 km/h 82 % 0 mm
07:57 -14.3 °C -15.9 °C 34611.7 hPa NE 5.1 km/h 12.9 km/h 81 % 0 mm
08:02 -14.2 °C -15.9 °C 34611.7 hPa East 7.7 km/h 12.9 km/h 81 % 0 mm
08:07 -14.2 °C -15.9 °C 34625.2 hPa Calm   20.8 km/h 81 % 0 mm
08:12 -14.2 °C -15.8 °C 34625.2 hPa Calm   20.8 km/h 81 % 0 mm
08:17 -14.1 °C -15.8 °C 34625.2 hPa SE 2.6 km/h 20.8 km/h 80 % 0 mm
08:22 -14 °C -15.8 °C 34625.2 hPa NE 5.1 km/h 18.2 km/h 80 % 0 mm
08:27 -14 °C -15.8 °C 34625.2 hPa NE 10.3 km/h 18.2 km/h 80 % 0 mm
08:32 -13.9 °C -15.7 °C 34611.7 hPa NNE 10.3 km/h 18.2 km/h 80 % 0 mm
08:42 -13.7 °C -15.5 °C 34611.7 hPa ENE 5.1 km/h 18.2 km/h 80 % 0 mm
08:47 -13.6 °C -15.5 °C 34611.7 hPa NNE 18.2 km/h 25.9 km/h 79 % 0 mm
08:52 -13.5 °C -15.5 °C 34611.7 hPa NNE 12.9 km/h 28.5 km/h 78 % 0 mm
08:57 -13.4 °C -15.4 °C 34611.7 hPa NW 5.1 km/h 28.5 km/h 78 % 0 mm
09:02 -13.3 °C -15.3 °C 34611.7 hPa NE 12.9 km/h 28.5 km/h 78 % 0 mm
09:07 -13.2 °C -15.2 °C 34611.7 hPa NE 10.3 km/h 23.3 km/h 78 % 0 mm
09:12 -13.1 °C -15.1 °C 34611.7 hPa NE 5.1 km/h 23.3 km/h 78 % 0 mm
09:17 -12.9 °C -15.1 °C 34611.7 hPa NE 7.7 km/h 25.9 km/h 77 % 0 mm
09:22 -12.8 °C -15.1 °C 34611.7 hPa NNE 7.7 km/h 25.9 km/h 76 % 0 mm
09:27 -12.7 °C -14.9 °C 34611.7 hPa NE 5.1 km/h 25.9 km/h 76 % 0 mm
09:32 -12.5 °C -14.8 °C 34611.7 hPa NE 5.1 km/h 23.3 km/h 75 % 0 mm
09:37 -12.3 °C -14.8 °C 34611.7 hPa North 18.2 km/h 23.3 km/h 74 % 0 mm
09:42 -12.1 °C -14.6 °C 34611.7 hPa NE 10.3 km/h 25.9 km/h 74 % 0 mm
09:52 -11.8 °C -14.4 °C 34601.5 hPa Calm   23.3 km/h 73 % 0 mm
09:57 -11.6 °C -14.3 °C 34611.7 hPa NE 7.7 km/h 23.3 km/h 72 % 0 mm
10:02 -11.5 °C -14.3 °C 34601.5 hPa NNE 12.9 km/h 23.3 km/h 71 % 0 mm
10:07 -11.4 °C -14.3 °C 34601.5 hPa NE 7.7 km/h 23.3 km/h 70 % 0 mm
10:12 -11.2 °C -14 °C 34601.5 hPa NNE 10.3 km/h 23.3 km/h 71 % 0 mm
10:17 -10.9 °C -14.1 °C 34611.7 hPa NE 10.3 km/h 23.3 km/h 68 % 0 mm
10:22 -10.7 °C -13.8 °C 34601.5 hPa Calm   20.8 km/h 69 % 0 mm
10:27 -10.4 °C -13.7 °C 34611.7 hPa Calm   18.2 km/h 68 % 0 mm
10:32 -10.2 °C -13.6 °C 34611.7 hPa ENE 12.9 km/h 18.2 km/h 66 % 0 mm
10:37 -10.2 °C -13.8 °C 34611.7 hPa WNW 7.7 km/h 18.2 km/h 65 % 0 mm
10:47 -10 °C -14 °C 34601.5 hPa SSE 10.3 km/h 18.2 km/h 62 % 0 mm
10:57 -9.6 °C -13.5 °C 34601.5 hPa West 7.7 km/h 12.9 km/h 63 % 0 mm
11:02 -9.8 °C -13.4 °C 34601.5 hPa NNE 7.7 km/h 12.9 km/h 65 % 0 mm
11:07 -9.6 °C -13.2 °C 34601.5 hPa NNE 5.1 km/h 12.9 km/h 65 % 0 mm
11:12 -9.5 °C -13.4 °C 34601.5 hPa NE 7.7 km/h 23.3 km/h 63 % 0 mm
11:17 -9.5 °C -13.3 °C 34601.5 hPa NE 5.1 km/h 23.3 km/h 64 % 0 mm
11:22 -9.6 °C -13.4 °C 34601.5 hPa ENE 18.2 km/h 23.3 km/h 63 % 0 mm
11:32 -9.3 °C -13.3 °C 34601.5 hPa NE 5.1 km/h 23.3 km/h 62 % 0 mm
11:37 -9 °C -12.8 °C 34601.5 hPa Calm   23.3 km/h 64 % 0 mm
11:42 -8.7 °C -12.7 °C 34601.5 hPa Calm   18.2 km/h 62 % 0 mm
11:57 -8.1 °C -13.1 °C 34611.7 hPa Calm   10.3 km/h 55 % 0 mm
12:02 -8 °C -12.8 °C 34611.7 hPa NNE 2.6 km/h 10.3 km/h 57 % 0 mm
12:12 -7.7 °C -12.5 °C 34611.7 hPa Calm   12.9 km/h 57 % 0 mm
12:17 -7.6 °C -12.9 °C 34601.5 hPa NE 5.1 km/h 12.9 km/h 54 % 0 mm
12:22 -7.7 °C -12.6 °C 34601.5 hPa NNE 2.6 km/h 12.9 km/h 56 % 0 mm
12:32 -7.4 °C -12.4 °C 34591.4 hPa SW 2.6 km/h 10.3 km/h 56 % 0 mm
12:37 -7.3 °C -12.6 °C 34591.4 hPa NE 5.1 km/h 12.9 km/h 54 % 0 mm
12:42 -7.1 °C -12.4 °C 34591.4 hPa Calm   12.9 km/h 54 % 0 mm
12:47 -6.9 °C -12.4 °C 34591.4 hPa Calm   12.9 km/h 53 % 0 mm
12:52 -6.7 °C -12.1 °C 34591.4 hPa Calm   12.9 km/h 54 % 0 mm
12:57 -6.8 °C -12.9 °C 34591.4 hPa NNW 5.1 km/h 12.9 km/h 49 % 0 mm
13:02 -6.9 °C -12.7 °C 34591.4 hPa NNE 2.6 km/h 12.9 km/h 51 % 0 mm
13:12 -6.9 °C -12.3 °C 34591.4 hPa Calm   15.6 km/h 53 % 0 mm
13:17 -7.1 °C -12.5 °C 34591.4 hPa NNE 2.6 km/h 15.6 km/h 53 % 0 mm
13:22 -6.9 °C -12.3 °C 34591.4 hPa NNE 2.6 km/h 15.6 km/h 53 % 0 mm
13:27 -6.8 °C -12.6 °C 34591.4 hPa ENE 5.1 km/h 18.2 km/h 51 % 0 mm
13:37 -7.1 °C -12.7 °C 34577.8 hPa Calm   12.9 km/h 52 % 0 mm
13:47 -6.6 °C -12.1 °C 34577.8 hPa Calm   10.3 km/h 53 % 0 mm
13:52 -6.4 °C -12.1 °C 34577.8 hPa NNE 15.6 km/h 15.6 km/h 52 % 0 mm
14:02 -6.1 °C -12.4 °C 34567.7 hPa Calm   15.6 km/h 48 % 0 mm
14:07 -5.8 °C -12.1 °C 34567.7 hPa NE 7.7 km/h 15.6 km/h 49 % 0 mm
14:12 -5.6 °C -11.8 °C 34567.7 hPa Calm   15.6 km/h 49 % 0 mm
14:17 -5.6 °C -12.1 °C 34554.1 hPa NE 5.1 km/h 10.3 km/h 47 % 0 mm
14:22 -5.6 °C -12.1 °C 34554.1 hPa WSW 2.6 km/h 10.3 km/h 47 % 0 mm
14:27 -5.6 °C -11.8 °C 34554.1 hPa NE 5.1 km/h 10.3 km/h 49 % 0 mm
14:32 -5.6 °C -11.9 °C 34554.1 hPa Calm   10.3 km/h 48 % 0 mm
14:37 -5.4 °C -11.7 °C 34554.1 hPa Calm   15.6 km/h 49 % 0 mm
14:42 -5.5 °C -11.7 °C 34554.1 hPa SSE 2.6 km/h 15.6 km/h 49 % 0 mm
14:47 -5.5 °C -12.3 °C 34544 hPa Calm   12.9 km/h 46 % 0 mm
14:52 -5.7 °C -12.8 °C 34544 hPa Calm   12.9 km/h 44 % 0 mm
14:57 -5.9 °C -12.1 °C 34544 hPa Calm   15.6 km/h 49 % 0 mm
15:02 -5.9 °C -12.3 °C 34544 hPa Calm   15.6 km/h 48 % 0 mm
15:07 -5.9 °C -12.3 °C 34544 hPa North 2.6 km/h 15.6 km/h 48 % 0 mm
15:12 -5.9 °C -12.3 °C 34544 hPa NNE 10.3 km/h 15.6 km/h 48 % 0 mm
15:17 -6.3 °C -12.4 °C 34544 hPa NE 10.3 km/h 12.9 km/h 49 % 0 mm
15:22 -6.4 °C -12.4 °C 34544 hPa NNE 2.6 km/h 20.8 km/h 50 % 0 mm
15:27 -6.2 °C -12.5 °C 34544 hPa NNE 2.6 km/h 23.3 km/h 48 % 0 mm
15:32 -6.2 °C -12 °C 34533.8 hPa Calm   23.3 km/h 51 % 0 mm
15:42 -6.3 °C -12.4 °C 34533.8 hPa NE 7.7 km/h 15.6 km/h 49 % 0 mm
15:47 -6.6 °C -13.1 °C 34533.8 hPa NE 10.3 km/h 15.6 km/h 47 % 0 mm
15:52 -6.6 °C -12.7 °C 34533.8 hPa North 2.6 km/h 20.8 km/h 49 % 0 mm
16:02 -6.4 °C -12.4 °C 34520.3 hPa NNW 2.6 km/h 20.8 km/h 50 % 0 mm
16:07 -6.3 °C -12.5 °C 34520.3 hPa NE 5.1 km/h 20.8 km/h 49 % 0 mm
16:12 -6.2 °C -12 °C 34520.3 hPa NE 2.6 km/h 20.8 km/h 51 % 0 mm
16:17 -5.9 °C -12.3 °C 34510.1 hPa NW 2.6 km/h 23.3 km/h 48 % 0 mm
16:22 -5.7 °C -11.7 °C 34510.1 hPa Calm   23.3 km/h 50 % 0 mm
16:32 -5.3 °C -12.5 °C 34510.1 hPa Calm   18.2 km/h 44 % 0 mm
16:37 -5.4 °C -11.6 °C 34496.6 hPa ENE 5.1 km/h 10.3 km/h 49 % 0 mm
16:42 -5.7 °C -12.2 °C 34496.6 hPa Calm   10.3 km/h 47 % 0 mm
16:52 -5.6 °C -12.6 °C 34496.6 hPa Calm   20.8 km/h 45 % 0 mm
17:02 -5.9 °C -12.8 °C 34496.6 hPa WSW 5.1 km/h 12.9 km/h 45 % 0 mm
17:07 -6 °C -12.3 °C 34496.6 hPa West 2.6 km/h 7.7 km/h 48 % 0 mm
17:12 -5.9 °C -12.5 °C 34496.6 hPa Calm   7.7 km/h 47 % 0 mm
17:22 -5.7 °C -12.1 °C 34486.4 hPa Calm   7.7 km/h 48 % 0 mm
17:32 -5.4 °C -12.6 °C 34486.4 hPa Calm   7.7 km/h 44 % 0 mm
17:37 -5.4 °C -12.2 °C 34486.4 hPa Calm   10.3 km/h 46 % 0 mm
17:42 -5.3 °C -12.2 °C 34486.4 hPa Calm   10.3 km/h 45 % 0 mm
17:47 -5.2 °C -12.3 °C 34486.4 hPa Calm   12.9 km/h 44 % 0 mm
17:52 -5.1 °C -12.3 °C 34486.4 hPa Calm   12.9 km/h 44 % 0 mm
17:57 -5.2 °C -12.1 °C 34476.3 hPa Calm   10.3 km/h 45 % 0 mm
18:02 -5.1 °C -11.9 °C 34476.3 hPa Calm   10.3 km/h 46 % 0 mm
18:12 -5.2 °C -12.6 °C 34476.3 hPa Calm   10.3 km/h 43 % 0 mm
18:17 -5.3 °C -12.3 °C 34476.3 hPa Calm   10.3 km/h 45 % 0 mm
18:22 -5.4 °C -12.6 °C 34476.3 hPa Calm   10.3 km/h 44 % 0 mm
18:27 -5.5 °C -12.4 °C 34476.3 hPa Calm   7.7 km/h 45 % 0 mm
18:32 -5.7 °C -12.4 °C 34476.3 hPa Calm   7.7 km/h 46 % 0 mm
18:37 -5.8 °C -12.9 °C 34476.3 hPa Calm   10.3 km/h 44 % 0 mm
18:42 -6 °C -12.7 °C 34476.3 hPa Calm   10.3 km/h 46 % 0 mm
18:47 -6.2 °C -12.6 °C 34462.7 hPa Calm   12.9 km/h 48 % 0 mm
18:52 -6.4 °C -12.6 °C 34476.3 hPa Calm   12.9 km/h 49 % 0 mm
18:57 -6.5 °C -12.7 °C 34462.7 hPa SW 2.6 km/h 7.7 km/h 49 % 0 mm
19:02 -6.6 °C -12.6 °C 34462.7 hPa Calm   7.7 km/h 50 % 0 mm
19:12 -6.8 °C -12.8 °C 34462.7 hPa NNE 5.1 km/h 5.1 km/h 50 % 0 mm
19:22 -7 °C -12.8 °C 34462.7 hPa Calm   7.7 km/h 51 % 0 mm
19:32 -7.1 °C -12.6 °C 34462.7 hPa Calm   7.7 km/h 53 % 0 mm
19:37 -7.2 °C -12.8 °C 34462.7 hPa Calm   5.1 km/h 52 % 0 mm
19:42 -7.2 °C -12.6 °C 34462.7 hPa Calm   5.1 km/h 53 % 0 mm
19:52 -7.4 °C -12.5 °C 34462.7 hPa Calm   5.1 km/h 55 % 0 mm
19:57 -7.5 °C -12.8 °C 34462.7 hPa Calm   5.1 km/h 54 % 0 mm
20:02 -7.6 °C -12.7 °C 34476.3 hPa Calm   5.1 km/h 55 % 0 mm
20:12 -7.8 °C -12.5 °C 34476.3 hPa Calm   5.1 km/h 58 % 0 mm
20:17 -8 °C -12.7 °C 34476.3 hPa Calm   7.7 km/h 58 % 0 mm
20:22 -8.2 °C -12.4 °C 34476.3 hPa Calm   7.7 km/h 61 % 0 mm
20:27 -8.5 °C -12.4 °C 34476.3 hPa Calm   7.7 km/h 63 % 0 mm
20:32 -8.7 °C -12.5 °C 34476.3 hPa Calm   7.7 km/h 64 % 0 mm
20:42 -9.2 °C -12.6 °C 34476.3 hPa Calm     67 % 0 mm
20:47 -9.3 °C -12.7 °C 34486.4 hPa Calm   2.6 km/h 67 % 0 mm
20:52 -9.4 °C -12.7 °C 34486.4 hPa Calm   2.6 km/h 68 % 0 mm
20:57 -9.5 °C -12.8 °C 34486.4 hPa Calm   2.6 km/h 68 % 0 mm
21:07 -9.6 °C -12.6 °C 34486.4 hPa NE 2.6 km/h 2.6 km/h 70 % 0 mm
21:12 -9.6 °C -12.8 °C 34486.4 hPa Calm   2.6 km/h 68 % 0 mm
21:17 -9.4 °C -12.7 °C 34486.4 hPa Calm   5.1 km/h 68 % 0 mm
21:22 -9.3 °C -12.9 °C 34476.3 hPa NE 2.6 km/h 5.1 km/h 65 % 0 mm
21:32 -9.3 °C -12.9 °C 34486.4 hPa NE 2.6 km/h 10.3 km/h 65 % 0 mm
21:42 -9.4 °C -12.9 °C 34486.4 hPa NNE 2.6 km/h 10.3 km/h 66 % 0 mm
21:47 -9.4 °C -12.9 °C 34486.4 hPa Calm   5.1 km/h 66 % 0 mm
21:52 -9.4 °C -12.8 °C 34486.4 hPa Calm   5.1 km/h 67 % 0 mm
21:57 -9.4 °C -12.8 °C 34496.6 hPa Calm   5.1 km/h 67 % 0 mm
22:02 -9.6 °C -12.6 °C 34496.6 hPa Calm   2.6 km/h 70 % 0 mm
22:12 -9.8 °C -12.8 °C 34486.4 hPa Calm   2.6 km/h 70 % 0 mm
22:17 -9.9 °C -12.8 °C 34486.4 hPa Calm     71 % 0 mm
22:22 -10 °C -13 °C 34486.4 hPa Calm     70 % 0 mm
22:32 -10.1 °C -13.1 °C 34486.4 hPa Calm     70 % 0 mm
22:42 -10.2 °C -12.9 °C 34486.4 hPa Calm     72 % 0 mm
22:47 -10.2 °C -13 °C 34486.4 hPa Calm     72 % 0 mm
22:57 -10.2 °C -13.1 °C 34486.4 hPa Calm     71 % 0 mm
23:02 -10.2 °C -13.1 °C 34486.4 hPa Calm     71 % 0 mm
23:07 -10.3 °C -13.3 °C 34486.4 hPa Calm     70 % 0 mm
23:12 -10.2 °C -13.4 °C 34476.3 hPa NNE 5.1 km/h   68 % 0 mm
23:17 -10.2 °C -13.5 °C 34486.4 hPa Calm   5.1 km/h 67 % 0 mm
23:22 -10.2 °C -13.4 °C 34486.4 hPa Calm   5.1 km/h 68 % 0 mm
23:32 -10.6 °C -13.4 °C 34486.4 hPa Calm   5.1 km/h 71 % 0 mm
23:37 -10.8 °C -13.4 °C 34486.4 hPa Calm   5.1 km/h 73 % 0 mm
23:42 -10.9 °C -13.4 °C 34486.4 hPa Calm   5.1 km/h 74 % 0 mm
23:52 -11.1 °C -13.5 °C 34496.6 hPa Calm   2.6 km/h 75 % 0 mm
Meteo18
Compliments of Weather Underground - 4 mb

Script developed by  Jim McMurry - jmcmurry@mwt.net Adapted for the template by  Wim van der Kuil - Leuven-Template.eu

You find our weather info also at:

European Weather Network

Weather Underground

Equipment we use:

Weather-station
Davis Vue

Weather-program
Meteobridge

Weather-server
Raspberry PI 2 B+

Provider
1 and 1

Davis Vue

Meteobridge

Raspberry PI 2 B+

1 and 1